Socorro, NM

11:19 AM MST on February 20, 2018 (GMT -0700)
Socorro Municipal

Weather History for KONM - April, 2014

Change the Weather History Date:

Monday, April 7, 2014

  Actual Average Record
Temperature  
Mean Temperature 56 °F -  
Max Temperature 71 °F 74 °F 83 °F (2013)
Min Temperature 40 °F 38 °F 38 °F (2015)
Degree Days  
Heating Degree Days 10    
Growing Degree Days 6 (Base 50)    
Moisture  
Dew Point 12 °F    
Average Humidity 19    
Maximum Humidity 35    
Minimum Humidity 9    
Precipitation  
Precipitation 0.00 in - - ()
Sea Level Pressure  
Sea Level Pressure 30.10 in    
Wind  
Wind Speed 13 mph (NNW)    
Max Wind Speed 23 mph    
Max Gust Speed 33 mph    
Visibility 10 miles    
Events      
Averages and records for this station are not official NWS values.
T = Trace of Precipitation, MM = Missing Value Source: NWS Daily Summary

Daily Weather History Graph

Daily Weather History Graph

Search for Another Location

Airport or City:

Trip Planner

Search our weather history database for the weather conditions in past years. The results will help you decide how hot, cold, wet, or windy it might be!

Date:

Astronomy

Apr. 07, 2014 Rise Set
Actual Time 6:46 AM MDT 7:32 PM MDT
Civil Twilight 6:21 AM MDT 7:58 PM MDT
Nautical Twilight 5:51 AM MDT 8:28 PM MDT
Astronomical Twilight 5:20 AM MDT 8:59 PM MDT
Moon 12:52 PM MDT (4/7) 2:04 AM MDT (4/7)
Length of Visible Light 13h 36m
Length of Day
12h 46m
First Quarter, 54% of the Moon is Illuminated
Apr 7
First Quarter
Apr 15
Full
Apr 22
Last Quarter
Apr 29
New
May 6
First Quarter

Hourly Weather History & Observations

Time (MDT) Temp. Windchill Dew Point Humidity Pressure Visibility Wind Dir Wind Speed Gust Speed Precip Events Conditions
12:15 AM 51.6 °F - 8.6 °F 18% 29.97 in 10.0 mi NNW 12.7 mph - N/A   Clear
12:35 AM 52.2 °F - 9.7 °F 18% 29.97 in 10.0 mi NNW 16.1 mph 26.5 mph N/A   Clear
12:55 AM 52.7 °F - 9.7 °F 18% 29.97 in 10.0 mi NW 10.4 mph 31.1 mph N/A   Clear
1:15 AM 52.5 °F - 10.0 °F 18% 29.98 in 10.0 mi WNW 18.4 mph 23.0 mph N/A   Clear
1:35 AM 52.0 °F - 10.4 °F 19% 29.97 in 10.0 mi WNW 17.3 mph 26.5 mph N/A   Clear
1:55 AM 52.2 °F - 10.4 °F 19% 29.98 in 10.0 mi NW 16.1 mph 32.2 mph N/A   Clear
2:15 AM 51.4 °F - 10.6 °F 19% 29.98 in 10.0 mi NW 20.7 mph 25.3 mph N/A   Mostly Cloudy
2:35 AM 51.3 °F - 10.9 °F 20% 29.98 in 10.0 mi NNW 18.4 mph 27.6 mph N/A   Scattered Clouds
2:55 AM 51.1 °F - 11.1 °F 20% 29.99 in 10.0 mi NNW 19.6 mph 27.6 mph N/A   Clear
3:15 AM 48.7 °F - 11.1 °F 22% 30.00 in 10.0 mi North 15.0 mph 23.0 mph N/A   Clear
3:35 AM 47.3 °F - 10.9 °F 23% 30.00 in 10.0 mi North 15.0 mph 19.6 mph N/A   Clear
3:55 AM 47.5 °F - 11.3 °F 23% 30.01 in 10.0 mi North 13.8 mph 18.4 mph N/A   Clear
4:15 AM 46.6 °F - 11.1 °F 24% 30.02 in 10.0 mi NNW 11.5 mph - N/A   Clear
4:35 AM 47.1 °F - 11.7 °F 24% 30.02 in 10.0 mi North 9.2 mph - N/A   Clear
4:55 AM 43.5 °F 38.9 °F 12.2 °F 28% 30.03 in 10.0 mi North 8.1 mph - N/A   Clear
5:15 AM 42.6 °F 38.4 °F 12.9 °F 30% 30.03 in 10.0 mi NNW 6.9 mph - N/A   Clear
5:35 AM 43.7 °F 39.1 °F 12.9 °F 29% 30.04 in 10.0 mi North 8.1 mph - N/A   Clear
6:15 AM 40.1 °F 38.0 °F 13.5 °F 34% 30.05 in 10.0 mi ESE 3.5 mph - N/A   Clear
6:35 AM 40.1 °F 38.0 °F 14.0 °F 35% 30.06 in 10.0 mi NNW 3.5 mph - N/A   Clear
6:55 AM 41.4 °F 37.6 °F 14.5 °F 34% 30.08 in 10.0 mi North 5.8 mph - N/A   Clear
7:15 AM 45.3 °F 39.7 °F 16.2 °F 31% 30.09 in 10.0 mi North 11.5 mph 16.1 mph N/A   Clear
7:35 AM 44.1 °F 41.5 °F 14.7 °F 31% 30.10 in 10.0 mi North 4.6 mph - N/A   Clear
7:55 AM 44.6 °F 42.2 °F 15.6 °F 31% 30.11 in 10.0 mi North 4.6 mph - N/A   Clear
8:15 AM 46.9 °F - 16.2 °F 29% 30.12 in 10.0 mi NNW 6.9 mph - N/A   Clear
8:35 AM 47.5 °F - 18.7 °F 32% 30.13 in 10.0 mi North 8.1 mph - N/A   Clear
8:55 AM 49.6 °F - 19.4 °F 30% 30.13 in 10.0 mi NNW 10.4 mph - N/A   Clear
9:15 AM 51.4 °F - 20.7 °F 30% 30.13 in 10.0 mi North 12.7 mph 18.4 mph N/A   Clear
9:55 AM 54.1 °F - 20.5 °F 27% 30.14 in 10.0 mi North 18.4 mph 21.9 mph N/A   Clear
10:15 AM 55.2 °F - 21.0 °F 26% 30.15 in 10.0 mi NNE 19.6 mph 24.2 mph N/A   Clear
10:35 AM 56.3 °F - 20.8 °F 25% 30.15 in 10.0 mi NNE 13.8 mph 21.9 mph N/A   Clear
10:55 AM 58.5 °F - 19.8 °F 22% 30.16 in 10.0 mi North 16.1 mph 24.2 mph N/A   Clear
11:20 AM 59.0 °F - 19.2 °F 21% 30.16 in 10.0 mi North 13.8 mph 25.3 mph N/A   Clear
11:35 AM 59.9 °F - 18.9 °F 20% 30.16 in 10.0 mi North 12.7 mph 24.2 mph N/A   Clear
11:55 AM 61.2 °F - 17.1 °F 18% 30.16 in 10.0 mi NNE 13.8 mph 20.7 mph N/A   Clear
12:15 PM 63.1 °F - 14.4 °F 15% 30.15 in 10.0 mi North 17.3 mph 26.5 mph N/A   Clear
12:35 PM 63.1 °F - 14.0 °F 15% 30.15 in 10.0 mi North 15.0 mph 24.2 mph N/A   Clear
12:55 PM 64.0 °F - 12.6 °F 13% 30.14 in 10.0 mi North 18.4 mph 27.6 mph N/A   Clear
1:15 PM 64.8 °F - 12.6 °F 13% 30.14 in 10.0 mi North 11.5 mph 19.6 mph N/A   Clear
1:35 PM 66.9 °F - 10.9 °F 11% 30.13 in 10.0 mi NNW 16.1 mph 26.5 mph N/A   Clear
1:55 PM 68.0 °F - 11.7 °F 11% 30.12 in 10.0 mi North 23.0 mph 29.9 mph N/A   Clear
2:15 PM 68.2 °F - 12.0 °F 11% 30.12 in 10.0 mi North 18.4 mph 26.5 mph N/A   Clear
2:35 PM 68.0 °F - 12.7 °F 12% 30.11 in 10.0 mi NNW 19.6 mph 27.6 mph N/A   Clear
2:55 PM 69.3 °F - 13.1 °F 11% 30.11 in 10.0 mi NNW 10.4 mph 23.0 mph N/A   Clear
3:15 PM 69.1 °F - 12.0 °F 11% 30.10 in 10.0 mi North 15.0 mph 29.9 mph N/A   Clear
3:35 PM 70.5 °F - 12.2 °F 11% 30.09 in 10.0 mi NNW 17.3 mph 25.3 mph N/A   Scattered Clouds
3:55 PM 70.5 °F - 10.9 °F 10% 30.09 in 10.0 mi NW 15.0 mph 33.4 mph N/A   Clear
4:15 PM 69.8 °F - 10.0 °F 10% 30.08 in 10.0 mi NNW 10.4 mph 23.0 mph N/A   Clear
4:35 PM 71.2 °F - 9.3 °F 9% 30.09 in 10.0 mi NW 15.0 mph 25.3 mph N/A   Clear
4:55 PM 70.3 °F - 8.4 °F 9% 30.08 in 10.0 mi NW 18.4 mph 31.1 mph N/A   Clear
5:15 PM 70.7 °F - 9.1 °F 9% 30.10 in 10.0 mi NW 19.6 mph 28.8 mph N/A   Clear
5:35 PM 69.6 °F - 8.4 °F 9% 30.10 in 10.0 mi North 15.0 mph 27.6 mph N/A   Clear
5:55 PM 69.3 °F - 7.5 °F 9% 30.10 in 10.0 mi NNW 10.4 mph 31.1 mph N/A   Clear
6:15 PM 69.1 °F - 6.1 °F 9% 30.10 in 10.0 mi NNW 19.6 mph 31.1 mph N/A   Clear
6:35 PM 68.4 °F - 6.3 °F 9% 30.11 in 10.0 mi NNW 12.7 mph 29.9 mph N/A   Clear
6:55 PM 67.1 °F - 6.6 °F 9% 30.12 in 10.0 mi NNW 17.3 mph 24.2 mph N/A   Clear
7:15 PM 65.7 °F - 6.8 °F 10% 30.12 in 10.0 mi North 11.5 mph 16.1 mph N/A   Clear
7:35 PM 64.2 °F - 6.6 °F 10% 30.13 in 10.0 mi NNW 8.1 mph 21.9 mph N/A   Clear
8:15 PM 61.5 °F - 7.2 °F 12% 30.14 in 10.0 mi North 8.1 mph - N/A   Clear
8:35 PM 60.4 °F - 7.0 °F 12% 30.15 in 10.0 mi NNW 5.8 mph - N/A   Clear
8:55 PM 56.8 °F - 6.8 °F 14% 30.17 in 10.0 mi North 3.5 mph - N/A   Clear
9:15 PM 54.9 °F - 7.0 °F 15% 30.18 in 10.0 mi NNE 4.6 mph - N/A   Clear
9:35 PM 54.7 °F - 8.2 °F 16% 30.19 in 10.0 mi North 6.9 mph - N/A   Clear
9:55 PM 54.5 °F - 8.1 °F 16% 30.20 in 10.0 mi North 6.9 mph - N/A   Clear
10:15 PM 53.6 °F - 8.4 °F 16% 30.20 in 10.0 mi North 8.1 mph - N/A   Clear
10:35 PM 52.5 °F - 8.8 °F 17% 30.21 in 10.0 mi North 5.8 mph - N/A   Clear
10:55 PM 52.5 °F - 9.1 °F 18% 30.22 in 10.0 mi North 4.6 mph - N/A   Clear
11:15 PM 52.7 °F - 8.6 °F 17% 30.22 in 10.0 mi North 8.1 mph - N/A   Clear
11:35 PM 55.6 °F - 9.1 °F 16% 30.22 in 10.0 mi North 8.1 mph - N/A   Clear